ETD6331 LGKR-EGCC

Flight info

Callsign ETD6331
Flight time 3h 0m
Altitude 40000
Route OLGAT DCT CRAYE DCT GISAM DCT ROTAR DCT TNT DCT RESIA DCT ELMUR DCT RIPUS DCT DITON DCT HOC DCT LUL DCT RLP DCT ROTSI DCT KOTUN DCT AMAXA DCT VESAN DCT RATUK DCT SOVAT L613 SANDY UN57 WELIN T420 ELVOS
Aircraft A346/H-SDE2E3FGHIJ3J4J5M1RWXY/LB1D1

Departure

Time 2026-05-06 14:59
Airport Corfu Ioannis Kapodistrias International Airport (LGKR)

Arrival

Time 2026-05-06 17:59
Airport Manchester Airport (EGCC)
Time Latitude Longitude Altitude Speed Heading
2026-05-06 14:45 39.60702 19.91322 19 ft 0 kts 79°
2026-05-06 14:54 39.60703 19.91322 17 ft 0 kts 79°
2026-05-06 14:55 39.60703 19.91324 17 ft 0 kts 79°
2026-05-06 14:55 39.60703 19.91329 17 ft 1 kts 79°
2026-05-06 14:56 39.60705 19.91335 17 ft 0 kts 66°
2026-05-06 14:56 39.60705 19.91336 17 ft 0 kts 60°
2026-05-06 14:56 39.60708 19.91339 17 ft 1 kts 34°
2026-05-06 14:56 39.60722 19.91332 21 ft 5 kts 321°
2026-05-06 14:57 39.60758 19.91295 17 ft 8 kts 321°
2026-05-06 14:57 39.60815 19.91236 17 ft 13 kts 322°
2026-05-06 14:57 39.60899 19.91171 17 ft 15 kts 337°
2026-05-06 14:57 39.61012 19.91130 18 ft 18 kts 348°
2026-05-06 14:58 39.61140 19.91095 19 ft 10 kts 348°
2026-05-06 14:58 39.61194 19.91073 19 ft 9 kts 318°
2026-05-06 14:58 39.61229 19.90999 19 ft 10 kts 261°
2026-05-06 14:58 39.61162 19.90968 19 ft 14 kts 170°
2026-05-06 14:59 39.60797 19.91061 18 ft 99 kts 168°
2026-05-06 14:59 39.59854 19.91314 37 ft 172 kts 168°
2026-05-06 14:59 39.58562 19.91634 613 ft 196 kts 167°
2026-05-06 14:59 39.57361 19.92331 1843 ft 190 kts 136°
2026-05-06 15:00 39.56796 19.93853 2730 ft 196 kts 98°
2026-05-06 15:00 39.56996 19.95660 3286 ft 213 kts 74°
2026-05-06 15:00 39.57455 19.97553 3887 ft 227 kts 80°
2026-05-06 15:00 39.57326 19.99562 4553 ft 233 kts 112°
2026-05-06 15:01 39.56555 20.01500 5291 ft 241 kts 123°
2026-05-06 15:01 39.55663 20.03361 6228 ft 244 kts 123°
2026-05-06 15:01 39.54792 20.05237 7077 ft 248 kts 122°
2026-05-06 15:01 39.53930 20.07210 7915 ft 254 kts 120°
2026-05-06 15:02 39.53074 20.09244 8711 ft 260 kts 120°
2026-05-06 15:02 39.52217 20.11320 9515 ft 265 kts 120°
2026-05-06 15:02 39.51338 20.13463 10291 ft 271 kts 120°
2026-05-06 15:02 39.50641 20.15749 11016 ft 276 kts 95°
2026-05-06 15:03 39.50919 20.18177 11786 ft 275 kts 60°
2026-05-06 15:03 39.52155 20.19987 12531 ft 269 kts 26°
2026-05-06 15:03 39.53925 20.20589 13231 ft 264 kts 352°
2026-05-06 15:03 39.55660 20.19922 13966 ft 262 kts 325°
2026-05-06 15:04 39.56953 20.18295 14585 ft 261 kts 298°
2026-05-06 15:04 39.57518 20.16068 15219 ft 262 kts 278°
2026-05-06 15:04 39.57770 20.13721 15871 ft 264 kts 278°
2026-05-06 15:04 39.58041 20.11355 16522 ft 266 kts 278°
2026-05-06 15:05 39.58330 20.08969 17190 ft 268 kts 279°
2026-05-06 15:05 39.58631 20.06566 17900 ft 271 kts 279°
2026-05-06 15:05 39.58939 20.04150 18601 ft 273 kts 279°
2026-05-06 15:05 39.59248 20.01738 19230 ft 275 kts 279°
2026-05-06 15:06 39.59565 19.99278 19834 ft 277 kts 279°
2026-05-06 15:06 39.59885 19.96795 20447 ft 280 kts 279°
2026-05-06 15:06 39.60210 19.94276 21048 ft 284 kts 279°
2026-05-06 15:06 39.60658 19.91767 21625 ft 288 kts 291°
2026-05-06 15:07 39.61607 19.89449 22155 ft 295 kts 305°
2026-05-06 15:07 39.62928 19.87322 22448 ft 310 kts 308°
2026-05-06 15:07 39.64361 19.85140 22725 ft 325 kts 309°
2026-05-06 15:07 39.65865 19.82857 23008 ft 339 kts 309°
2026-05-06 15:08 39.67427 19.80475 23286 ft 353 kts 309°
2026-05-06 15:08 39.69051 19.77992 23554 ft 367 kts 309°
2026-05-06 15:08 39.70734 19.75410 23803 ft 381 kts 308°
2026-05-06 15:08 39.72479 19.72723 24020 ft 394 kts 308°
2026-05-06 15:09 39.74254 19.69986 24233 ft 407 kts 308°
2026-05-06 15:09 39.76107 19.67128 24446 ft 419 kts 308°
2026-05-06 15:09 39.78013 19.64183 24650 ft 432 kts 308°
2026-05-06 15:09 39.79971 19.61156 24914 ft 441 kts 308°
2026-05-06 15:10 39.81959 19.58078 25384 ft 445 kts 308°
2026-05-06 15:10 39.83958 19.54987 25949 ft 447 kts 309°
2026-05-06 15:10 39.86038 19.51967 26480 ft 450 kts 311°
2026-05-06 15:10 39.88218 19.49004 27015 ft 453 kts 312°
2026-05-06 15:11 39.90417 19.46051 27534 ft 455 kts 312°
2026-05-06 15:11 39.92635 19.43080 28064 ft 457 kts 312°
2026-05-06 15:11 39.94856 19.40099 28661 ft 458 kts 312°
2026-05-06 15:11 39.97075 19.37117 29439 ft 454 kts 311°
2026-05-06 15:12 39.99236 19.34208 30245 ft 450 kts 311°
2026-05-06 15:12 40.01407 19.31281 30897 ft 447 kts 311°
2026-05-06 15:12 40.03564 19.28369 31521 ft 445 kts 311°
2026-05-06 15:12 40.05717 19.25460 32117 ft 444 kts 311°
2026-05-06 15:13 40.07855 19.22567 32691 ft 442 kts 311°
2026-05-06 15:13 40.09982 19.19685 33291 ft 440 kts 311°
2026-05-06 15:13 40.12105 19.16806 33878 ft 439 kts 311°
2026-05-06 15:13 40.14226 19.13926 34403 ft 437 kts 311°
2026-05-06 15:14 40.16334 19.11060 34878 ft 436 kts 311°
2026-05-06 15:14 40.18442 19.08210 35358 ft 435 kts 312°
2026-05-06 15:14 40.20625 19.05485 35841 ft 434 kts 315°
2026-05-06 15:14 40.22917 19.02896 36280 ft 434 kts 317°
2026-05-06 15:15 40.25305 19.00464 36674 ft 435 kts 320°
2026-05-06 15:15 40.27801 18.98179 37037 ft 436 kts 323°
2026-05-06 15:15 40.30380 18.96069 37395 ft 438 kts 326°
2026-05-06 15:15 40.33041 18.94129 37734 ft 439 kts 328°
2026-05-06 15:16 40.35748 18.92271 38077 ft 439 kts 328°
2026-05-06 15:16 40.38460 18.90431 38390 ft 439 kts 328°
2026-05-06 15:16 40.41145 18.88609 38633 ft 440 kts 328°
2026-05-06 15:16 40.43864 18.86763 38831 ft 441 kts 328°
2026-05-06 15:17 40.46600 18.84900 38978 ft 443 kts 328°
2026-05-06 15:17 40.49344 18.83027 39133 ft 444 kts 328°
2026-05-06 15:17 40.52089 18.81152 39311 ft 445 kts 328°
2026-05-06 15:17 40.54845 18.79268 39478 ft 446 kts 328°
2026-05-06 15:18 40.57602 18.77380 39638 ft 447 kts 328°
2026-05-06 15:18 40.60358 18.75493 39790 ft 448 kts 328°
2026-05-06 15:18 40.63129 18.73591 39938 ft 449 kts 328°
2026-05-06 15:18 40.65904 18.71684 40048 ft 450 kts 328°
2026-05-06 15:19 40.68691 18.69768 40041 ft 451 kts 328°
2026-05-06 15:19 40.74223 18.65960 40045 ft 451 kts 328°
2026-05-06 15:20 40.79781 18.62127 40043 ft 451 kts 328°
2026-05-06 15:20 40.85346 18.58284 40039 ft 451 kts 328°
2026-05-06 15:21 40.90911 18.54432 40042 ft 451 kts 328°
2026-05-06 15:21 40.96490 18.50564 40039 ft 452 kts 328°
2026-05-06 15:22 41.02059 18.46695 40036 ft 452 kts 328°
2026-05-06 15:22 41.07630 18.42817 40038 ft 452 kts 328°
2026-05-06 15:23 41.13160 18.38960 40044 ft 453 kts 327°
2026-05-06 15:23 41.18748 18.35057 40023 ft 454 kts 327°
2026-05-06 15:24 41.24330 18.31150 40025 ft 454 kts 327°
2026-05-06 15:24 41.29920 18.27229 40039 ft 454 kts 327°
2026-05-06 15:25 41.35502 18.23305 40023 ft 454 kts 327°
2026-05-06 15:25 41.41089 18.19371 40034 ft 454 kts 327°
2026-05-06 15:26 41.46720 18.15394 40032 ft 463 kts 327°
2026-05-06 15:26 41.52316 18.11074 40016 ft 464 kts 323°
2026-05-06 15:27 41.57706 18.06330 40023 ft 464 kts 322°
2026-05-06 15:27 41.63085 18.01540 40019 ft 465 kts 322°
2026-05-06 15:28 41.68468 17.96747 40021 ft 465 kts 322°
2026-05-06 15:28 41.73821 17.91976 40021 ft 465 kts 322°
2026-05-06 15:29 41.79209 17.87165 40013 ft 465 kts 322°
2026-05-06 15:29 41.84593 17.82347 40017 ft 465 kts 322°
2026-05-06 15:30 41.89908 17.77428 40016 ft 463 kts 319°
2026-05-06 15:30 41.94840 17.71896 40013 ft 459 kts 313°
2026-05-06 15:31 41.99397 17.65977 40013 ft 458 kts 311°
2026-05-06 15:31 42.03958 17.59955 40007 ft 458 kts 311°
2026-05-06 15:32 42.10792 17.50921 40011 ft 459 kts 311°
2026-05-06 15:32 42.15350 17.44890 40002 ft 459 kts 311°
2026-05-06 15:33 42.19906 17.38849 40012 ft 459 kts 311°
2026-05-06 15:33 42.24462 17.32800 40005 ft 458 kts 311°
2026-05-06 15:34 42.29005 17.26750 39999 ft 458 kts 311°
2026-05-06 15:34 42.33550 17.20684 40005 ft 459 kts 311°
2026-05-06 15:35 42.38097 17.14604 39994 ft 459 kts 311°
2026-05-06 15:35 42.42641 17.08517 40002 ft 459 kts 311°
2026-05-06 15:36 42.47189 17.02412 39999 ft 460 kts 310°
2026-05-06 15:36 42.51698 16.96344 39992 ft 460 kts 310°
2026-05-06 15:37 42.56244 16.90212 39985 ft 460 kts 310°
2026-05-06 15:37 42.60784 16.84075 39993 ft 461 kts 310°
2026-05-06 15:38 42.65319 16.77931 39987 ft 461 kts 310°
2026-05-06 15:38 42.69859 16.71767 39988 ft 461 kts 310°
2026-05-06 15:39 42.74396 16.65598 39993 ft 461 kts 310°
2026-05-06 15:39 42.78921 16.59426 39983 ft 461 kts 310°
2026-05-06 15:40 42.83447 16.53239 39987 ft 461 kts 310°
2026-05-06 15:40 42.87210 16.48085 39981 ft 461 kts 310°
2026-05-06 15:41 42.91739 16.41871 39981 ft 461 kts 310°
2026-05-06 15:41 42.96262 16.35650 39980 ft 461 kts 310°
2026-05-06 15:42 43.00792 16.29411 39980 ft 461 kts 309°
2026-05-06 15:42 43.05306 16.23174 39968 ft 461 kts 309°
2026-05-06 15:43 43.09784 16.16973 39972 ft 462 kts 309°
2026-05-06 15:43 43.14314 16.10686 39972 ft 463 kts 309°
2026-05-06 15:44 43.18834 16.04402 39967 ft 462 kts 309°
2026-05-06 15:44 43.23359 15.98095 39975 ft 463 kts 309°
2026-05-06 15:45 43.27885 15.91772 39966 ft 464 kts 309°
2026-05-06 15:45 43.32409 15.85439 39972 ft 465 kts 309°
2026-05-06 15:46 43.36949 15.79067 39976 ft 466 kts 309°
2026-05-06 15:46 43.41456 15.72730 39961 ft 466 kts 309°
2026-05-06 15:47 43.45987 15.66344 39962 ft 466 kts 309°
2026-05-06 15:47 43.50514 15.59948 39962 ft 466 kts 309°
2026-05-06 15:48 43.55054 15.53518 39981 ft 466 kts 309°
2026-05-06 15:48 43.59554 15.47128 39957 ft 468 kts 309°
2026-05-06 15:49 43.64089 15.40678 39956 ft 468 kts 309°
2026-05-06 15:49 43.68626 15.34211 39955 ft 468 kts 309°
2026-05-06 15:50 43.73158 15.27735 39970 ft 468 kts 309°
2026-05-06 15:50 43.77688 15.21247 39951 ft 468 kts 309°
2026-05-06 15:51 43.82211 15.14752 39950 ft 468 kts 309°
2026-05-06 15:51 43.86701 15.08290 39954 ft 468 kts 309°
2026-05-06 15:52 43.91215 15.01779 39948 ft 468 kts 309°
2026-05-06 15:52 43.95723 14.95260 39938 ft 468 kts 309°
2026-05-06 15:53 44.00230 14.88730 39933 ft 468 kts 309°
2026-05-06 15:53 44.04731 14.82189 39937 ft 469 kts 309°
2026-05-06 15:54 44.09242 14.75620 39934 ft 469 kts 309°
2026-05-06 15:54 44.13754 14.69035 39943 ft 469 kts 309°
2026-05-06 15:55 44.18227 14.62493 39936 ft 469 kts 309°
2026-05-06 15:55 44.22729 14.55891 39939 ft 469 kts 309°
2026-05-06 15:56 44.27218 14.49293 39945 ft 469 kts 309°
2026-05-06 15:56 44.31713 14.42669 39940 ft 469 kts 309°
2026-05-06 15:57 44.36201 14.36040 39938 ft 469 kts 309°
2026-05-06 15:57 44.40691 14.29390 39948 ft 470 kts 309°
2026-05-06 15:58 44.45184 14.22724 39937 ft 470 kts 309°
2026-05-06 15:58 44.49671 14.16051 39936 ft 470 kts 309°
2026-05-06 15:59 44.54159 14.09359 39938 ft 470 kts 308°
2026-05-06 15:59 44.58614 14.02700 39945 ft 471 kts 308°
2026-05-06 16:00 44.63106 13.95970 39927 ft 472 kts 308°
2026-05-06 16:00 44.67596 13.89225 39938 ft 472 kts 308°
2026-05-06 16:01 44.72081 13.82471 39927 ft 472 kts 308°
2026-05-06 16:01 44.76567 13.75701 39947 ft 472 kts 308°
2026-05-06 16:02 44.81020 13.68967 39936 ft 472 kts 308°
2026-05-06 16:02 44.85502 13.62167 39929 ft 472 kts 308°
2026-05-06 16:03 44.89974 13.55367 39921 ft 472 kts 308°
2026-05-06 16:03 44.94449 13.48546 39924 ft 472 kts 308°
2026-05-06 16:04 44.98918 13.41726 39937 ft 472 kts 308°
2026-05-06 16:04 45.03371 13.34899 39913 ft 472 kts 308°
2026-05-06 16:05 45.07828 13.28053 39900 ft 472 kts 308°
2026-05-06 16:05 45.12250 13.21247 39899 ft 472 kts 308°
2026-05-06 16:06 45.16712 13.14364 39906 ft 472 kts 307°
2026-05-06 16:06 45.21175 13.07457 39893 ft 472 kts 307°
2026-05-06 16:07 45.25424 13.00376 39876 ft 469 kts 302°
2026-05-06 16:07 45.29091 12.92836 39865 ft 465 kts 296°
2026-05-06 16:08 45.32423 12.84958 39890 ft 464 kts 296°
2026-05-06 16:08 45.35724 12.77065 39869 ft 463 kts 295°
2026-05-06 16:09 45.39019 12.69167 39870 ft 463 kts 295°
2026-05-06 16:09 45.42310 12.61264 39871 ft 463 kts 295°
2026-05-06 16:10 45.45591 12.53368 39874 ft 463 kts 295°
2026-05-06 16:10 45.48883 12.45433 39885 ft 465 kts 295°
2026-05-06 16:11 45.52177 12.37453 39878 ft 466 kts 295°
2026-05-06 16:11 45.55466 12.29474 39876 ft 466 kts 295°
2026-05-06 16:12 45.58748 12.21489 39875 ft 466 kts 295°
2026-05-06 16:12 45.62029 12.13484 39910 ft 467 kts 295°
2026-05-06 16:13 45.65307 12.05461 39905 ft 467 kts 295°
2026-05-06 16:13 45.68561 11.97474 39903 ft 467 kts 295°
2026-05-06 16:14 45.71840 11.89404 39895 ft 467 kts 295°
2026-05-06 16:14 45.75103 11.81348 39913 ft 468 kts 295°
2026-05-06 16:15 45.78374 11.73241 39899 ft 471 kts 295°
2026-05-06 16:15 45.81649 11.65114 39900 ft 471 kts 295°
2026-05-06 16:16 45.84905 11.57009 39902 ft 471 kts 295°
2026-05-06 16:16 45.88169 11.48858 39900 ft 471 kts 295°
2026-05-06 16:17 45.91431 11.40686 39897 ft 471 kts 295°
2026-05-06 16:17 45.94683 11.32514 39897 ft 471 kts 295°
2026-05-06 16:18 45.97932 11.24328 39900 ft 470 kts 294°
2026-05-06 16:18 46.01180 11.16117 39904 ft 470 kts 294°
2026-05-06 16:19 46.04517 11.07975 39918 ft 472 kts 297°
2026-05-06 16:19 46.07971 10.99914 39920 ft 472 kts 297°
2026-05-06 16:20 46.11383 10.91902 39922 ft 472 kts 296°
2026-05-06 16:20 46.14805 10.83814 39922 ft 472 kts 296°
2026-05-06 16:21 46.18235 10.75661 39922 ft 472 kts 296°
2026-05-06 16:21 46.21618 10.67599 39918 ft 472 kts 296°
2026-05-06 16:22 46.25030 10.59451 39891 ft 472 kts 296°
2026-05-06 16:22 46.28421 10.51321 39895 ft 472 kts 296°
2026-05-06 16:23 46.31806 10.43184 39933 ft 471 kts 296°
2026-05-06 16:23 46.35188 10.35026 39887 ft 472 kts 296°
2026-05-06 16:24 46.38567 10.26852 39896 ft 473 kts 296°
2026-05-06 16:24 46.41942 10.18666 39897 ft 472 kts 296°
2026-05-06 16:25 46.45294 10.10539 39897 ft 473 kts 297°
2026-05-06 16:25 46.49043 10.02637 39911 ft 478 kts 303°
2026-05-06 16:26 46.53324 9.95218 39905 ft 480 kts 307°
2026-05-06 16:26 46.57763 9.87925 39905 ft 481 kts 307°
2026-05-06 16:27 46.61450 9.81861 39896 ft 481 kts 307°
2026-05-06 16:27 46.65869 9.74562 39917 ft 481 kts 307°
2026-05-06 16:28 46.70293 9.67218 39904 ft 483 kts 307°
2026-05-06 16:28 46.74720 9.59856 39889 ft 483 kts 307°
2026-05-06 16:29 46.79159 9.52453 39893 ft 483 kts 307°
2026-05-06 16:29 46.83587 9.45043 39868 ft 484 kts 307°
2026-05-06 16:30 46.87270 9.38865 39882 ft 485 kts 307°
2026-05-06 16:30 46.92451 9.30153 39879 ft 486 kts 307°
2026-05-06 16:31 46.96891 9.22665 39856 ft 486 kts 307°
2026-05-06 16:31 47.01300 9.15209 39884 ft 485 kts 307°
2026-05-06 16:32 47.05724 9.07709 39872 ft 486 kts 306°
2026-05-06 16:32 47.10097 9.00114 39898 ft 486 kts 304°
2026-05-06 16:33 47.13971 8.92026 39896 ft 482 kts 298°
2026-05-06 16:34 47.18594 8.78996 39890 ft 477 kts 289°
2026-05-06 16:34 47.20983 8.69908 39885 ft 475 kts 287°
2026-05-06 16:35 47.23296 8.60767 39886 ft 477 kts 287°
2026-05-06 16:35 47.25603 8.51660 39876 ft 477 kts 287°
2026-05-06 16:36 47.27917 8.42498 39888 ft 477 kts 287°
2026-05-06 16:36 47.30229 8.33303 39887 ft 477 kts 286°
2026-05-06 16:37 47.32514 8.24107 39855 ft 478 kts 287°
2026-05-06 16:37 47.34800 8.14900 39873 ft 478 kts 287°
2026-05-06 16:38 47.37080 8.05688 39880 ft 478 kts 287°
2026-05-06 16:38 47.39352 7.96465 39885 ft 478 kts 287°
2026-05-06 16:39 47.41616 7.87230 39878 ft 478 kts 287°
2026-05-06 16:39 47.43871 7.77993 39877 ft 478 kts 287°
2026-05-06 16:40 47.46089 7.68773 39871 ft 477 kts 285°
2026-05-06 16:40 47.47874 7.59349 39880 ft 475 kts 281°
2026-05-06 16:41 47.49463 7.49839 39895 ft 475 kts 281°
2026-05-06 16:41 47.51035 7.40343 39884 ft 475 kts 281°
2026-05-06 16:42 47.52609 7.30824 39871 ft 475 kts 281°
2026-05-06 16:42 47.54164 7.21373 39873 ft 475 kts 281°
2026-05-06 16:43 47.55720 7.11863 39888 ft 475 kts 281°
2026-05-06 16:43 47.57272 7.02331 39878 ft 475 kts 281°
2026-05-06 16:44 47.58811 6.92822 39871 ft 475 kts 281°
2026-05-06 16:44 47.60346 6.83282 39877 ft 476 kts 281°
2026-05-06 16:45 47.61877 6.73708 39874 ft 476 kts 281°
2026-05-06 16:45 47.63400 6.64140 39882 ft 477 kts 280°
2026-05-06 16:46 47.64910 6.54596 39873 ft 477 kts 280°
2026-05-06 16:46 47.66418 6.45001 39872 ft 477 kts 280°
2026-05-06 16:47 47.67918 6.35394 39876 ft 477 kts 280°
2026-05-06 16:47 47.69612 6.25845 39882 ft 479 kts 284°
2026-05-06 16:48 47.71618 6.16371 39872 ft 480 kts 284°
2026-05-06 16:48 47.73633 6.06909 39870 ft 480 kts 284°
2026-05-06 16:49 47.75643 5.97406 39870 ft 480 kts 284°
2026-05-06 16:49 47.77637 5.87912 39890 ft 480 kts 284°
2026-05-06 16:50 47.79612 5.78463 39880 ft 481 kts 284°
2026-05-06 16:50 47.81596 5.68924 39885 ft 481 kts 284°
2026-05-06 16:51 47.83570 5.59391 39879 ft 481 kts 284°
2026-05-06 16:51 47.85540 5.49832 39882 ft 481 kts 284°
2026-05-06 16:52 47.87500 5.40279 39888 ft 483 kts 285°
2026-05-06 16:52 47.89950 5.30899 39889 ft 486 kts 292°
2026-05-06 16:53 47.93225 5.22029 39889 ft 489 kts 300°
2026-05-06 16:53 47.97293 5.13835 39894 ft 492 kts 308°
2026-05-06 16:54 48.01837 5.06258 39889 ft 494 kts 310°
2026-05-06 16:54 48.06478 4.98655 39898 ft 494 kts 310°
2026-05-06 16:55 48.11104 4.91022 39893 ft 494 kts 309°
2026-05-06 16:55 48.15716 4.83366 39880 ft 494 kts 309°
2026-05-06 16:56 48.20316 4.75704 39898 ft 494 kts 309°
2026-05-06 16:56 48.24884 4.68068 39887 ft 494 kts 309°
2026-05-06 16:57 48.29476 4.60368 39888 ft 494 kts 309°
2026-05-06 16:57 48.34048 4.52669 39888 ft 494 kts 309°
2026-05-06 16:58 48.38636 4.44919 39889 ft 495 kts 309°
2026-05-06 16:58 48.43209 4.37169 39891 ft 495 kts 309°
2026-05-06 16:59 48.47761 4.29432 40036 ft 495 kts 309°
2026-05-06 16:59 48.52298 4.21696 39909 ft 490 kts 309°
2026-05-06 17:00 48.56818 4.13976 39896 ft 490 kts 309°
2026-05-06 17:00 48.61330 4.06244 39895 ft 490 kts 309°
2026-05-06 17:01 48.65829 3.98508 39903 ft 490 kts 309°
2026-05-06 17:01 48.70433 3.90881 39895 ft 491 kts 313°
2026-05-06 17:02 48.75508 3.83917 39890 ft 492 kts 319°
2026-05-06 17:02 48.80961 3.77709 39888 ft 493 kts 322°
2026-05-06 17:03 48.86551 3.71622 39883 ft 493 kts 322°
2026-05-06 17:03 48.92137 3.65519 39889 ft 493 kts 322°
2026-05-06 17:04 48.97705 3.59403 39888 ft 493 kts 322°
2026-05-06 17:04 49.03264 3.53272 39718 ft 493 kts 322°
2026-05-06 17:05 49.08816 3.47130 39858 ft 499 kts 322°
2026-05-06 17:05 49.14446 3.40883 39881 ft 501 kts 322°
2026-05-06 17:06 49.20083 3.34610 39891 ft 501 kts 322°
2026-05-06 17:06 49.25720 3.28320 39891 ft 500 kts 322°
2026-05-06 17:07 49.31343 3.22030 39896 ft 500 kts 322°
2026-05-06 17:07 49.36962 3.15721 39893 ft 500 kts 322°
2026-05-06 17:08 49.42579 3.09395 39897 ft 500 kts 322°
2026-05-06 17:08 49.48165 3.03087 39896 ft 500 kts 322°
2026-05-06 17:09 49.53765 2.96751 39903 ft 500 kts 322°
2026-05-06 17:09 49.59367 2.90389 39898 ft 499 kts 321°
2026-05-06 17:10 49.64929 2.84054 39900 ft 499 kts 321°
2026-05-06 17:10 49.70522 2.77667 39901 ft 499 kts 321°
2026-05-06 17:11 49.76014 2.71379 39900 ft 485 kts 321°
2026-05-06 17:11 49.81459 2.65238 39904 ft 484 kts 322°
2026-05-06 17:12 49.86941 2.59180 39907 ft 483 kts 322°
2026-05-06 17:12 49.92418 2.53102 39904 ft 483 kts 322°
2026-05-06 17:13 49.96962 2.48038 39911 ft 483 kts 322°
2026-05-06 17:13 50.02403 2.41953 39904 ft 482 kts 322°
2026-05-06 17:14 50.08738 2.34844 39912 ft 482 kts 322°
2026-05-06 17:14 50.14177 2.28721 39927 ft 482 kts 322°
2026-05-06 17:15 50.18721 2.23592 39923 ft 481 kts 322°
2026-05-06 17:15 50.24122 2.17481 39921 ft 479 kts 322°
2026-05-06 17:16 50.29520 2.11357 39923 ft 479 kts 322°
2026-05-06 17:16 50.34911 2.05220 39920 ft 479 kts 322°
2026-05-06 17:17 50.40071 1.98746 39927 ft 477 kts 317°
2026-05-06 17:17 50.45085 1.91917 39926 ft 476 kts 317°
2026-05-06 17:18 50.50084 1.85066 39942 ft 476 kts 317°
2026-05-06 17:18 50.55082 1.78214 39932 ft 476 kts 317°
2026-05-06 17:19 50.60068 1.71367 39934 ft 476 kts 317°
2026-05-06 17:19 50.65026 1.64536 39938 ft 475 kts 317°
2026-05-06 17:20 50.70024 1.57633 39939 ft 474 kts 317°
2026-05-06 17:20 50.74984 1.50755 39940 ft 474 kts 316°
2026-05-06 17:21 50.79904 1.43906 39931 ft 474 kts 317°
2026-05-06 17:21 50.84856 1.37005 39957 ft 474 kts 317°
2026-05-06 17:22 50.89803 1.30094 39955 ft 473 kts 317°
2026-05-06 17:22 50.94732 1.23188 39951 ft 473 kts 317°
2026-05-06 17:23 50.99664 1.16258 39959 ft 472 kts 316°
2026-05-06 17:23 51.04580 1.09322 39954 ft 472 kts 316°
2026-05-06 17:24 51.09353 1.02227 39956 ft 472 kts 314°
2026-05-06 17:24 51.14048 0.94938 39952 ft 472 kts 314°
2026-05-06 17:25 51.18754 0.87600 39969 ft 472 kts 314°
2026-05-06 17:25 51.23456 0.80265 39967 ft 471 kts 314°
2026-05-06 17:26 51.28112 0.72983 39975 ft 471 kts 314°
2026-05-06 17:26 51.32828 0.65587 39973 ft 471 kts 314°
2026-05-06 17:27 51.37503 0.58235 40003 ft 469 kts 314°
2026-05-06 17:27 51.42140 0.50916 39985 ft 469 kts 314°
2026-05-06 17:28 51.46780 0.43571 39977 ft 468 kts 314°
2026-05-06 17:28 51.51410 0.36220 39979 ft 468 kts 314°
2026-05-06 17:29 51.56034 0.28857 39981 ft 467 kts 314°
2026-05-06 17:29 51.60667 0.21458 39983 ft 467 kts 313°
2026-05-06 17:30 51.65286 0.14049 39980 ft 467 kts 313°
2026-05-06 17:30 51.67574 0.10317 39847 ft 467 kts 313°
2026-05-06 17:30 51.69820 0.06628 39617 ft 465 kts 313°
2026-05-06 17:30 51.72080 0.02905 39378 ft 462 kts 313°
2026-05-06 17:31 51.73863 -0.00034 39209 ft 460 kts 313°
2026-05-06 17:31 51.76134 -0.03782 39008 ft 457 kts 313°
2026-05-06 17:31 51.78351 -0.07445 38716 ft 454 kts 313°
2026-05-06 17:31 51.80557 -0.11091 38284 ft 453 kts 313°
2026-05-06 17:32 51.82758 -0.14733 37726 ft 452 kts 313°
2026-05-06 17:32 51.84956 -0.18375 37211 ft 453 kts 313°
2026-05-06 17:32 51.87170 -0.22049 36659 ft 453 kts 313°
2026-05-06 17:32 51.89375 -0.25714 36069 ft 453 kts 312°
2026-05-06 17:33 51.91573 -0.29373 35503 ft 453 kts 312°
2026-05-06 17:33 51.93754 -0.33009 34921 ft 453 kts 312°
2026-05-06 17:33 51.95957 -0.36688 34303 ft 454 kts 312°
2026-05-06 17:33 51.98166 -0.40382 33607 ft 455 kts 312°
2026-05-06 17:34 52.00364 -0.44065 32925 ft 455 kts 312°
2026-05-06 17:34 52.02568 -0.47763 32259 ft 455 kts 312°
2026-05-06 17:34 52.04767 -0.51459 31618 ft 454 kts 312°
2026-05-06 17:34 52.06971 -0.55163 30975 ft 454 kts 312°
2026-05-06 17:35 52.09170 -0.58868 30312 ft 454 kts 312°
2026-05-06 17:35 52.11368 -0.62580 29569 ft 455 kts 312°
2026-05-06 17:35 52.13559 -0.66286 28842 ft 454 kts 312°
2026-05-06 17:36 52.17928 -0.73689 27435 ft 452 kts 312°
2026-05-06 17:36 52.20108 -0.77392 27029 ft 452 kts 312°
2026-05-06 17:36 52.22298 -0.81044 26587 ft 449 kts 314°
2026-05-06 17:36 52.24591 -0.84388 26150 ft 446 kts 319°
2026-05-06 17:37 52.27065 -0.87460 25698 ft 444 kts 323°
2026-05-06 17:37 52.29650 -0.90206 25270 ft 441 kts 326°
2026-05-06 17:37 52.32256 -0.92811 24852 ft 437 kts 327°
2026-05-06 17:37 52.34854 -0.95375 24442 ft 434 kts 327°
2026-05-06 17:38 52.37431 -0.97922 23984 ft 430 kts 327°
2026-05-06 17:38 52.39974 -1.00448 23545 ft 427 kts 327°
2026-05-06 17:38 52.42499 -1.02967 23049 ft 423 kts 327°
2026-05-06 17:38 52.45002 -1.05471 22569 ft 418 kts 327°
2026-05-06 17:39 52.47446 -1.07919 22121 ft 414 kts 327°
2026-05-06 17:39 52.49899 -1.10380 21676 ft 410 kts 327°
2026-05-06 17:39 52.52315 -1.12811 21243 ft 406 kts 327°
2026-05-06 17:39 52.54717 -1.15229 20820 ft 401 kts 327°
2026-05-06 17:40 52.57054 -1.17584 20693 ft 387 kts 327°
2026-05-06 17:40 52.59313 -1.19861 20585 ft 374 kts 327°
2026-05-06 17:40 52.61504 -1.22073 20452 ft 361 kts 327°
2026-05-06 17:40 52.63629 -1.24223 20323 ft 350 kts 327°
2026-05-06 17:41 52.65669 -1.26288 20210 ft 338 kts 327°
2026-05-06 17:41 52.67641 -1.28287 20094 ft 326 kts 327°
2026-05-06 17:41 52.69534 -1.30206 19999 ft 315 kts 327°
2026-05-06 17:41 52.71380 -1.32082 19783 ft 309 kts 327°
2026-05-06 17:42 52.73220 -1.33957 19322 ft 311 kts 327°
2026-05-06 17:42 52.75064 -1.35839 18965 ft 312 kts 327°
2026-05-06 17:42 52.76913 -1.37726 18569 ft 312 kts 327°
2026-05-06 17:42 52.78761 -1.39612 18154 ft 312 kts 327°
2026-05-06 17:43 52.80610 -1.41501 17741 ft 311 kts 327°
2026-05-06 17:43 52.82421 -1.43353 17358 ft 309 kts 327°
2026-05-06 17:43 52.84240 -1.45217 16954 ft 307 kts 327°
2026-05-06 17:43 52.86054 -1.47077 16571 ft 306 kts 327°
2026-05-06 17:44 52.87855 -1.48923 16188 ft 304 kts 327°
2026-05-06 17:44 52.89653 -1.50769 15811 ft 303 kts 327°
2026-05-06 17:44 52.91442 -1.52608 15421 ft 302 kts 327°
2026-05-06 17:44 52.93218 -1.54436 15039 ft 301 kts 327°
2026-05-06 17:45 52.94994 -1.56265 14655 ft 300 kts 327°
2026-05-06 17:45 52.96765 -1.58091 14268 ft 299 kts 327°
2026-05-06 17:45 52.98527 -1.59909 13901 ft 298 kts 327°
2026-05-06 17:45 53.00275 -1.61716 13488 ft 296 kts 327°
2026-05-06 17:46 53.02016 -1.63515 13093 ft 295 kts 327°
2026-05-06 17:46 53.03752 -1.65314 12712 ft 292 kts 326°
2026-05-06 17:46 53.05391 -1.67339 12328 ft 290 kts 318°
2026-05-06 17:46 53.06807 -1.69702 11952 ft 288 kts 311°
2026-05-06 17:47 53.08104 -1.72184 11592 ft 286 kts 310°
2026-05-06 17:47 53.09417 -1.74752 11225 ft 284 kts 310°
2026-05-06 17:47 53.10688 -1.77237 10853 ft 283 kts 310°
2026-05-06 17:47 53.11968 -1.79732 10517 ft 281 kts 310°
2026-05-06 17:48 53.13233 -1.82192 10211 ft 278 kts 310°
2026-05-06 17:48 53.14484 -1.84627 9891 ft 276 kts 310°
2026-05-06 17:48 53.15726 -1.87044 9573 ft 273 kts 310°
2026-05-06 17:48 53.16954 -1.89435 9269 ft 269 kts 310°
2026-05-06 17:49 53.18169 -1.91805 8965 ft 266 kts 310°
2026-05-06 17:49 53.19370 -1.94150 8675 ft 263 kts 310°
2026-05-06 17:49 53.20554 -1.96460 8387 ft 261 kts 310°
2026-05-06 17:49 53.21727 -1.98754 8102 ft 258 kts 310°
2026-05-06 17:50 53.22814 -2.01021 8015 ft 246 kts 300°
2026-05-06 17:50 53.23242 -2.03674 8007 ft 240 kts 270°
2026-05-06 17:50 53.22817 -2.06412 8012 ft 251 kts 245°
2026-05-06 17:50 53.21981 -2.08996 8010 ft 253 kts 243°
2026-05-06 17:51 53.21131 -2.11524 7762 ft 255 kts 242°
2026-05-06 17:51 53.20272 -2.14091 7465 ft 254 kts 243°
2026-05-06 17:51 53.19420 -2.16663 7186 ft 251 kts 243°
2026-05-06 17:51 53.18586 -2.19202 6915 ft 249 kts 243°
2026-05-06 17:52 53.17756 -2.21736 6636 ft 247 kts 243°
2026-05-06 17:52 53.16940 -2.24230 6346 ft 244 kts 243°
2026-05-06 17:52 53.16133 -2.26698 6079 ft 240 kts 243°
2026-05-06 17:52 53.15336 -2.29140 5803 ft 236 kts 243°
2026-05-06 17:53 53.14575 -2.31538 5514 ft 233 kts 249°
2026-05-06 17:53 53.14383 -2.34155 5210 ft 228 kts 283°
2026-05-06 17:53 53.15037 -2.36505 4957 ft 224 kts 303°
2026-05-06 17:53 53.15902 -2.38666 4684 ft 223 kts 304°
2026-05-06 17:54 53.16770 -2.40816 4407 ft 223 kts 304°
2026-05-06 17:54 53.17621 -2.42959 4137 ft 223 kts 303°
2026-05-06 17:54 53.18465 -2.45108 3917 ft 223 kts 303°
2026-05-06 17:54 53.19311 -2.47277 3659 ft 223 kts 303°
2026-05-06 17:55 53.20148 -2.49433 3412 ft 222 kts 303°
2026-05-06 17:55 53.21161 -2.51358 3096 ft 222 kts 333°
2026-05-06 17:55 53.22618 -2.51738 2982 ft 215 kts 19°
2026-05-06 17:55 53.23869 -2.50435 3021 ft 213 kts 47°
2026-05-06 17:56 53.24840 -2.48577 2891 ft 211 kts 53°
2026-05-06 17:56 53.25736 -2.46631 2608 ft 211 kts 54°
2026-05-06 17:56 53.26634 -2.44690 2333 ft 210 kts 53°
2026-05-06 17:56 53.27518 -2.42838 2079 ft 200 kts 52°
2026-05-06 17:57 53.28375 -2.41064 1786 ft 192 kts 53°
2026-05-06 17:57 53.29200 -2.39357 1508 ft 185 kts 53°
2026-05-06 17:57 53.29990 -2.37722 1238 ft 175 kts 53°
2026-05-06 17:57 53.30732 -2.36180 1006 ft 164 kts 53°
2026-05-06 17:58 53.31425 -2.34741 759 ft 152 kts 52°
2026-05-06 17:58 53.32062 -2.33421 580 ft 145 kts 53°
2026-05-06 17:58 53.32693 -2.32113 395 ft 143 kts 53°
2026-05-06 17:58 53.33311 -2.30827 240 ft 136 kts 50°
2026-05-06 17:59 53.33810 -2.29796 240 ft 88 kts 51°
2026-05-06 17:59 53.34096 -2.29203 239 ft 53 kts 51°
2026-05-06 17:59 53.34324 -2.28753 237 ft 44 kts 44°
2026-05-06 17:59 53.34480 -2.28564 241 ft 36 kts 27°
2026-05-06 18:00 53.34723 -2.28364 238 ft 24 kts 41°
2026-05-06 18:00 53.34798 -2.28223 240 ft 25 kts 51°
2026-05-06 18:00 53.34913 -2.27988 238 ft 27 kts 51°
2026-05-06 18:00 53.35036 -2.27733 239 ft 28 kts 51°
2026-05-06 18:01 53.35134 -2.27526 242 ft 17 kts 51°
2026-05-06 18:01 53.35210 -2.27369 246 ft 18 kts 51°
2026-05-06 18:01 53.35292 -2.27222 249 ft 13 kts 34°
2026-05-06 18:01 53.35371 -2.27200 254 ft 12 kts 343°
2026-05-06 18:02 53.35441 -2.27284 256 ft 14 kts 319°
2026-05-06 18:02 53.35523 -2.27396 256 ft 17 kts 322°
2026-05-06 18:02 53.35621 -2.27524 254 ft 12 kts 322°
2026-05-06 18:02 53.35660 -2.27575 255 ft 8 kts 321°
2026-05-06 18:03 53.35665 -2.27582 255 ft 1 kts 323°
2026-05-06 18:03 53.35679 -2.27599 255 ft 4 kts 327°
2026-05-06 18:03 53.35716 -2.27633 256 ft 8 kts 334°
2026-05-06 18:03 53.35771 -2.27681 259 ft 10 kts 327°
2026-05-06 18:04 53.35833 -2.27776 261 ft 14 kts 313°
2026-05-06 18:04 53.35924 -2.27846 264 ft 16 kts 349°
2026-05-06 18:04 53.36026 -2.27951 263 ft 19 kts 318°
2026-05-06 18:04 53.36134 -2.28114 263 ft 23 kts 316°
2026-05-06 18:05 53.36236 -2.28285 263 ft 16 kts 314°
2026-05-06 18:05 53.36328 -2.28432 263 ft 20 kts 327°
2026-05-06 18:05 53.36457 -2.28553 263 ft 23 kts 318°
2026-05-06 18:05 53.36557 -2.28722 263 ft 14 kts 315°
2026-05-06 18:06 53.36639 -2.28757 263 ft 15 kts 28°
2026-05-06 18:06 53.36716 -2.28637 263 ft 12 kts 44°
2026-05-06 18:06 53.36746 -2.28586 263 ft 5 kts 61°
2026-05-06 18:06 53.36735 -2.28533 263 ft 7 kts 133°
2026-05-06 18:07 53.36718 -2.28504 263 ft 1 kts 134°
2026-05-06 18:07 53.36706 -2.28484 263 ft 0 kts 134°
2026-05-06 18:07 53.36704 -2.28481 263 ft 0 kts 134°